EZY64ED EGKK-EDDL

Flight info

Callsign EZY64ED
Flight time 0h 52m
Altitude 33000
Route DVR L9 KONAN DCT KOK UL607 SPI Y862 KENUM M170 NVO T857 BIKMU BIKMU1A
Aircraft A320/M-SDE3FGHIRWY/LB1

Departure

Time 2026-05-06 20:10
Airport London Gatwick Airport (EGKK)

Arrival

Time 2026-05-06 21:02
Airport Düsseldorf Airport (EDDL)
Time Latitude Longitude Altitude Speed Heading
2026-05-06 19:42 51.15283 -0.18886 205 ft 0 kts 258°
2026-05-06 19:59 51.15287 -0.18853 216 ft 5 kts 258°
2026-05-06 19:59 51.15294 -0.18802 218 ft 5 kts 257°
2026-05-06 19:59 51.15300 -0.18768 216 ft 2 kts 239°
2026-05-06 19:59 51.15306 -0.18753 215 ft 2 kts 194°
2026-05-06 20:00 51.15317 -0.18751 217 ft 2 kts 169°
2026-05-06 20:00 51.15325 -0.18754 215 ft 0 kts 168°
2026-05-06 20:02 51.15322 -0.18753 215 ft 2 kts 168°
2026-05-06 20:02 51.15303 -0.18746 213 ft 4 kts 167°
2026-05-06 20:02 51.15267 -0.18733 213 ft 7 kts 167°
2026-05-06 20:03 51.15212 -0.18714 205 ft 9 kts 168°
2026-05-06 20:03 51.15145 -0.18715 212 ft 9 kts 211°
2026-05-06 20:03 51.15122 -0.18802 205 ft 8 kts 257°
2026-05-06 20:03 51.15111 -0.18881 214 ft 7 kts 258°
2026-05-06 20:04 51.15100 -0.18964 216 ft 10 kts 258°
2026-05-06 20:04 51.15083 -0.19087 215 ft 12 kts 257°
2026-05-06 20:04 51.15067 -0.19203 212 ft 10 kts 257°
2026-05-06 20:04 51.15049 -0.19332 205 ft 15 kts 258°
2026-05-06 20:05 51.15024 -0.19511 210 ft 16 kts 257°
2026-05-06 20:05 51.15001 -0.19673 208 ft 14 kts 258°
2026-05-06 20:05 51.14982 -0.19814 213 ft 12 kts 258°
2026-05-06 20:05 51.14965 -0.19939 208 ft 11 kts 258°
2026-05-06 20:06 51.14942 -0.20111 216 ft 20 kts 259°
2026-05-06 20:06 51.14910 -0.20331 209 ft 21 kts 257°
2026-05-06 20:06 51.14879 -0.20560 212 ft 22 kts 258°
2026-05-06 20:06 51.14845 -0.20800 207 ft 23 kts 257°
2026-05-06 20:07 51.14810 -0.21054 212 ft 24 kts 258°
2026-05-06 20:07 51.14777 -0.21244 205 ft 4 kts 262°
2026-05-06 20:07 51.14772 -0.21279 205 ft 9 kts 257°
2026-05-06 20:07 51.14747 -0.21394 215 ft 9 kts 229°
2026-05-06 20:08 51.14692 -0.21395 211 ft 7 kts 163°
2026-05-06 20:08 51.14656 -0.21354 217 ft 5 kts 139°
2026-05-06 20:08 51.14635 -0.21338 208 ft 1 kts 161°
2026-05-06 20:08 51.14632 -0.21336 207 ft 1 kts 164°
2026-05-06 20:09 51.14619 -0.21332 212 ft 3 kts 166°
2026-05-06 20:09 51.14580 -0.21317 211 ft 10 kts 166°
2026-05-06 20:09 51.14518 -0.21224 212 ft 10 kts 99°
2026-05-06 20:09 51.14521 -0.21165 208 ft 0 kts 79°
2026-05-06 20:10 51.14550 -0.20954 208 ft 55 kts 77°
2026-05-06 20:10 51.14682 -0.20006 211 ft 118 kts 77°
2026-05-06 20:10 51.14893 -0.18467 219 ft 164 kts 77°
2026-05-06 20:10 51.15150 -0.16655 810 ft 167 kts 77°
2026-05-06 20:11 51.15384 -0.14849 1564 ft 168 kts 76°
2026-05-06 20:11 51.15628 -0.12948 2029 ft 184 kts 75°
2026-05-06 20:11 51.15920 -0.10834 2338 ft 207 kts 75°
2026-05-06 20:11 51.16238 -0.08527 2863 ft 216 kts 76°
2026-05-06 20:12 51.16521 -0.06236 3794 ft 203 kts 78°
2026-05-06 20:12 51.16779 -0.04017 4469 ft 213 kts 81°
2026-05-06 20:12 51.16825 -0.01525 4841 ft 238 kts 90°
2026-05-06 20:12 51.16800 0.01202 5226 ft 261 kts 90°
2026-05-06 20:13 51.16757 0.04161 5943 ft 271 kts 91°
2026-05-06 20:13 51.16706 0.07171 6836 ft 273 kts 91°
2026-05-06 20:13 51.16650 0.10226 7650 ft 278 kts 91°
2026-05-06 20:13 51.16590 0.13339 8451 ft 284 kts 91°
2026-05-06 20:14 51.16534 0.16516 9226 ft 289 kts 90°
2026-05-06 20:14 51.16521 0.19741 10031 ft 294 kts 89°
2026-05-06 20:14 51.16534 0.23013 10773 ft 297 kts 88°
2026-05-06 20:14 51.16554 0.26327 11531 ft 301 kts 88°
2026-05-06 20:15 51.16572 0.29685 12288 ft 304 kts 89°
2026-05-06 20:15 51.16586 0.33072 13050 ft 308 kts 89°
2026-05-06 20:15 51.16595 0.36500 13806 ft 311 kts 89°
2026-05-06 20:15 51.16598 0.39966 14463 ft 315 kts 89°
2026-05-06 20:16 51.16599 0.43470 15114 ft 318 kts 89°
2026-05-06 20:16 51.16598 0.47016 15782 ft 321 kts 89°
2026-05-06 20:16 51.16598 0.50618 16242 ft 333 kts 89°
2026-05-06 20:16 51.16597 0.54412 16380 ft 353 kts 89°
2026-05-06 20:17 51.16595 0.58401 16681 ft 366 kts 89°
2026-05-06 20:17 51.16592 0.62490 17243 ft 371 kts 89°
2026-05-06 20:17 51.16587 0.66633 17845 ft 375 kts 90°
2026-05-06 20:17 51.16580 0.70809 18425 ft 379 kts 90°
2026-05-06 20:18 51.16572 0.75027 18952 ft 383 kts 90°
2026-05-06 20:18 51.16559 0.79279 19486 ft 386 kts 90°
2026-05-06 20:18 51.16544 0.83568 20044 ft 389 kts 90°
2026-05-06 20:18 51.16528 0.87894 20566 ft 392 kts 90°
2026-05-06 20:19 51.16512 0.92193 21077 ft 395 kts 90°
2026-05-06 20:19 51.16494 0.96582 21580 ft 398 kts 90°
2026-05-06 20:19 51.16475 1.01009 22079 ft 401 kts 90°
2026-05-06 20:19 51.16455 1.05467 22581 ft 404 kts 90°
2026-05-06 20:20 51.16435 1.09961 23064 ft 407 kts 90°
2026-05-06 20:20 51.16411 1.14484 23549 ft 410 kts 90°
2026-05-06 20:20 51.16385 1.19035 23950 ft 412 kts 91°
2026-05-06 20:20 51.16354 1.23623 24356 ft 415 kts 91°
2026-05-06 20:21 51.16317 1.28223 24757 ft 417 kts 91°
2026-05-06 20:21 51.16279 1.32854 25146 ft 419 kts 91°
2026-05-06 20:21 51.16226 1.37506 25535 ft 421 kts 92°
2026-05-06 20:21 51.16082 1.42183 25920 ft 423 kts 94°
2026-05-06 20:22 51.15863 1.46867 26306 ft 425 kts 95°
2026-05-06 20:22 51.15604 1.51571 26685 ft 427 kts 95°
2026-05-06 20:22 51.15336 1.56237 27049 ft 430 kts 95°
2026-05-06 20:22 51.15069 1.60986 27409 ft 432 kts 95°
2026-05-06 20:23 51.14812 1.65763 27764 ft 434 kts 95°
2026-05-06 20:23 51.14567 1.70570 28129 ft 436 kts 95°
2026-05-06 20:23 51.14328 1.75400 28486 ft 439 kts 95°
2026-05-06 20:23 51.14090 1.80248 28834 ft 441 kts 95°
2026-05-06 20:24 51.13927 1.83544 29070 ft 442 kts 95°
2026-05-06 20:24 51.13599 1.90027 29521 ft 445 kts 95°
2026-05-06 20:24 51.13431 1.93285 29741 ft 447 kts 95°
2026-05-06 20:24 51.13085 1.99895 30159 ft 449 kts 95°
2026-05-06 20:25 51.12913 2.03184 30332 ft 451 kts 95°
2026-05-06 20:25 51.12648 2.08168 30595 ft 453 kts 95°
2026-05-06 20:25 51.12379 2.13171 30853 ft 454 kts 95°
2026-05-06 20:25 51.12108 2.18196 31113 ft 456 kts 95°
2026-05-06 20:26 51.11836 2.23234 31378 ft 457 kts 95°
2026-05-06 20:26 51.11561 2.28274 31754 ft 456 kts 95°
2026-05-06 20:26 51.11284 2.33297 32122 ft 455 kts 95°
2026-05-06 20:26 51.11002 2.38327 32320 ft 458 kts 95°
2026-05-06 20:27 51.10715 2.43382 32594 ft 459 kts 95°
2026-05-06 20:27 51.10427 2.48433 32904 ft 459 kts 95°
2026-05-06 20:27 51.09859 2.58484 32974 ft 453 kts 95°
2026-05-06 20:28 51.08908 2.68352 32978 ft 452 kts 106°
2026-05-06 20:28 51.07158 2.77949 32977 ft 451 kts 106°
2026-05-06 20:29 51.05428 2.87463 32977 ft 451 kts 106°
2026-05-06 20:29 51.03689 2.97028 32976 ft 451 kts 106°
2026-05-06 20:30 51.01057 3.11363 32974 ft 450 kts 106°
2026-05-06 20:31 50.99291 3.20893 32974 ft 450 kts 106°
2026-05-06 20:31 50.97521 3.30402 32963 ft 449 kts 106°
2026-05-06 20:32 50.95745 3.39905 32958 ft 449 kts 107°
2026-05-06 20:32 50.93963 3.49394 32953 ft 449 kts 107°
2026-05-06 20:33 50.92175 3.58872 32954 ft 449 kts 107°
2026-05-06 20:33 50.90373 3.68336 32950 ft 449 kts 107°
2026-05-06 20:34 50.88570 3.77730 32953 ft 449 kts 107°
2026-05-06 20:34 50.86743 3.87167 32958 ft 449 kts 107°
2026-05-06 20:35 50.84905 3.96599 32955 ft 448 kts 107°
2026-05-06 20:35 50.83060 4.06022 32956 ft 448 kts 107°
2026-05-06 20:36 50.81525 4.13845 32964 ft 448 kts 108°
2026-05-06 20:36 50.80454 4.19252 32963 ft 448 kts 108°
2026-05-06 20:37 50.78592 4.28651 32970 ft 448 kts 108°
2026-05-06 20:37 50.76727 4.38043 32966 ft 448 kts 108°
2026-05-06 20:38 50.74853 4.47427 32968 ft 448 kts 108°
2026-05-06 20:38 50.72966 4.56804 32960 ft 448 kts 108°
2026-05-06 20:39 50.71094 4.66184 32959 ft 448 kts 108°
2026-05-06 20:39 50.69280 4.75598 32954 ft 448 kts 107°
2026-05-06 20:40 50.67469 4.84999 32946 ft 448 kts 108°
2026-05-06 20:40 50.65632 4.94382 32941 ft 448 kts 108°
2026-05-06 20:41 50.63735 5.03676 32945 ft 448 kts 109°
2026-05-06 20:41 50.61791 5.12992 32951 ft 448 kts 109°
2026-05-06 20:42 50.59856 5.22302 32954 ft 447 kts 109°
2026-05-06 20:42 50.57931 5.31610 32953 ft 447 kts 109°
2026-05-06 20:43 50.55998 5.40887 32940 ft 446 kts 109°
2026-05-06 20:43 50.55027 5.45508 32395 ft 444 kts 109°
2026-05-06 20:43 50.54055 5.50112 31580 ft 445 kts 109°
2026-05-06 20:43 50.53269 5.54800 30963 ft 442 kts 100°
2026-05-06 20:44 50.52992 5.59583 30415 ft 438 kts 90°
2026-05-06 20:44 50.53227 5.64273 29864 ft 435 kts 81°
2026-05-06 20:44 50.53961 5.68870 29229 ft 432 kts 71°
2026-05-06 20:44 50.55161 5.73171 28624 ft 428 kts 62°
2026-05-06 20:45 50.56569 5.77280 28015 ft 425 kts 62°
2026-05-06 20:45 50.57956 5.81366 27437 ft 422 kts 62°
2026-05-06 20:45 50.59326 5.85428 26847 ft 418 kts 62°
2026-05-06 20:45 50.60682 5.89455 26237 ft 414 kts 62°
2026-05-06 20:46 50.62023 5.93436 25538 ft 410 kts 62°
2026-05-06 20:46 50.63351 5.97385 24861 ft 406 kts 63°
2026-05-06 20:46 50.64664 6.01298 24213 ft 402 kts 63°
2026-05-06 20:46 50.65960 6.05170 23587 ft 398 kts 63°
2026-05-06 20:47 50.67244 6.09014 22881 ft 394 kts 62°
2026-05-06 20:47 50.68507 6.12803 22299 ft 387 kts 62°
2026-05-06 20:47 50.69752 6.16532 21753 ft 381 kts 62°
2026-05-06 20:47 50.70984 6.20203 21193 ft 376 kts 62°
2026-05-06 20:48 50.72190 6.23840 20658 ft 372 kts 64°
2026-05-06 20:48 50.73181 6.27584 20114 ft 368 kts 68°
2026-05-06 20:48 50.74117 6.31260 19604 ft 364 kts 67°
2026-05-06 20:48 50.75054 6.34955 19085 ft 361 kts 67°
2026-05-06 20:49 50.75982 6.38622 18591 ft 358 kts 67°
2026-05-06 20:49 50.76899 6.42255 18074 ft 354 kts 67°
2026-05-06 20:49 50.77805 6.45857 17508 ft 352 kts 67°
2026-05-06 20:49 50.78704 6.49438 16942 ft 349 kts 67°
2026-05-06 20:50 50.79597 6.52993 16399 ft 347 kts 67°
2026-05-06 20:50 50.80518 6.56493 15857 ft 344 kts 62°
2026-05-06 20:50 50.81776 6.59673 15328 ft 339 kts 49°
2026-05-06 20:50 50.83448 6.62247 14805 ft 334 kts 34°
2026-05-06 20:51 50.85464 6.63998 14294 ft 329 kts 19°
2026-05-06 20:51 50.87668 6.64831 13791 ft 325 kts
2026-05-06 20:51 50.89885 6.65291 13240 ft 322 kts
2026-05-06 20:51 50.92100 6.65754 12677 ft 320 kts
2026-05-06 20:52 50.93424 6.66034 12349 ft 315 kts
2026-05-06 20:52 50.95567 6.66493 11722 ft 308 kts
2026-05-06 20:52 50.97648 6.66945 11075 ft 303 kts
2026-05-06 20:52 50.99720 6.67393 10435 ft 299 kts
2026-05-06 20:53 51.01766 6.67820 9800 ft 294 kts
2026-05-06 20:53 51.03800 6.67830 9104 ft 290 kts 357°
2026-05-06 20:53 51.05795 6.67614 8433 ft 285 kts 356°
2026-05-06 20:53 51.07744 6.67401 8053 ft 271 kts 356°
2026-05-06 20:54 51.09519 6.66763 7711 ft 258 kts 334°
2026-05-06 20:54 51.10863 6.64934 7194 ft 257 kts 305°
2026-05-06 20:54 51.11467 6.62278 6626 ft 260 kts 276°
2026-05-06 20:54 51.11172 6.59455 6025 ft 264 kts 247°
2026-05-06 20:55 51.10251 6.56927 5363 ft 265 kts 239°
2026-05-06 20:55 51.09269 6.54543 5114 ft 250 kts 238°
2026-05-06 20:55 51.08341 6.52262 4675 ft 242 kts 245°
2026-05-06 20:55 51.07985 6.49733 4238 ft 234 kts 278°
2026-05-06 20:56 51.08534 6.47393 3935 ft 225 kts 311°
2026-05-06 20:56 51.09767 6.45973 3588 ft 219 kts 344°
2026-05-06 20:56 51.11227 6.45468 3434 ft 211 kts 358°
2026-05-06 20:56 51.12627 6.45856 3305 ft 202 kts 20°
2026-05-06 20:57 51.13902 6.46674 3178 ft 197 kts 28°
2026-05-06 20:57 51.14940 6.48052 3085 ft 196 kts 50°
2026-05-06 20:57 51.15767 6.49771 3060 ft 196 kts 51°
2026-05-06 20:57 51.16594 6.51491 3065 ft 196 kts 51°
2026-05-06 20:58 51.17420 6.53208 3063 ft 196 kts 51°
2026-05-06 20:58 51.18238 6.54908 3065 ft 196 kts 51°
2026-05-06 20:58 51.19061 6.56620 3042 ft 187 kts 51°
2026-05-06 20:58 51.19823 6.58206 2901 ft 179 kts 51°
2026-05-06 20:59 51.20572 6.59766 2654 ft 176 kts 50°
2026-05-06 20:59 51.21305 6.61293 2450 ft 169 kts 51°
2026-05-06 20:59 51.21993 6.62728 2216 ft 158 kts 50°
2026-05-06 20:59 51.22638 6.64075 2016 ft 144 kts 49°
2026-05-06 21:00 51.23228 6.65305 1813 ft 136 kts 49°
2026-05-06 21:00 51.23795 6.66487 1623 ft 133 kts 49°
2026-05-06 21:00 51.24354 6.67654 1443 ft 132 kts 49°
2026-05-06 21:00 51.24908 6.68811 1262 ft 132 kts 49°
2026-05-06 21:01 51.25469 6.69982 1067 ft 133 kts 50°
2026-05-06 21:01 51.26036 6.71168 857 ft 136 kts 50°
2026-05-06 21:01 51.26611 6.72368 677 ft 136 kts 50°
2026-05-06 21:01 51.27185 6.73563 497 ft 135 kts 50°
2026-05-06 21:02 51.27759 6.74744 304 ft 137 kts 54°
2026-05-06 21:02 51.28329 6.75949 146 ft 132 kts 54°
2026-05-06 21:02 51.28778 6.76914 127 ft 98 kts 51°
2026-05-06 21:02 51.29086 6.77557 128 ft 49 kts 53°